User: anonymous   Login
Location: ????????
(60.4333°N, 46.4710°E)
Time: 16:35:33
(UTC+00:00)
Language:

Cosmos 2263 - Orbit

View from above orbital plane
View from above orbital plane
View from above satellite
View from above satellite

Ground track
Ground track

The orbit data is extracted from the following two-line orbital elements,

1 22802U 93059A   21062.78379809 -.00000103  00000-0 -29064-4 0  9993
2 22802  70.9279 352.6990 0023168 349.8508  10.2142 14.13193524416421
Epoch (UTC): 03 March 2021 18:48:40
Eccentricity: 0.0023168
inclination: 70.9279°
perigee height: 832 km
apogee height: 865 km
right ascension of ascending node: 352.6990°
argument of perigee: 349.8508°
revolutions per day: 14.13193524
mean anomaly at epoch: 10.2142°
orbit number at epoch: 41642

The dashed part of the orbit path shows where the satellite is in the earth's shadow,  

DLR